Location: Unspecified
(40.7945°N, 0.0000°E)
Time: 23:11:05
(UTC+00:00)

Explorer 11/Cluster Stage 4 - Pass Details

Date: 26 January 2021
Orbit: 467 x 1257 km, 28.8° (Epoch: 25 February)

Event Time Altitude Azimuth Distance (km) Brightness Sun altitude
Rises 19:53:50 0° 227° (SW) 3,036 10.2 -30.9°
Reaches altitude 10° 19:56:35 10° 210° (SSW) 2,259 9.2 -31.4°
Enters shadow 19:58:03 16° 196° (SSW) 1,966 8.7 -31.7°
